ANA1275 RJFF-RJCC

Flight info

Callsign ANA1275
Flight time N/A
Altitude 39000
Route BUTUR Y453 MARCO Y141 SAMON Y14 GOLDO Y19 MRE Y13 SIRAO Y139 NAVER
Aircraft B772/H-SDE2E3FGHIJ5LORVWXY/LB1D1

Departure

Time 2026-05-09 07:04
Airport Fukuoka Airport (RJFF)

Arrival

Time N/A
Airport New Chitose Airport (RJCC)
Time Latitude Longitude Altitude Speed Heading
2026-05-09 06:42 33.59505 130.44865 28 ft 0 kts 51°
2026-05-09 06:53 33.59497 130.44854 27 ft 4 kts 63°
2026-05-09 06:53 33.59483 130.44820 27 ft 4 kts 68°
2026-05-09 06:53 33.59481 130.44793 26 ft 4 kts 124°
2026-05-09 06:53 33.59493 130.44779 25 ft 4 kts 149°
2026-05-09 06:54 33.59507 130.44769 27 ft 0 kts 150°
2026-05-09 06:56 33.59506 130.44770 27 ft 2 kts 150°
2026-05-09 06:56 33.59467 130.44797 27 ft 7 kts 150°
2026-05-09 06:57 33.59426 130.44825 28 ft 7 kts 150°
2026-05-09 06:57 33.59363 130.44852 28 ft 18 kts 174°
2026-05-09 06:57 33.59254 130.44857 29 ft 14 kts 171°
2026-05-09 06:57 33.59166 130.44905 30 ft 14 kts 150°
2026-05-09 06:58 33.59081 130.44963 31 ft 14 kts 150°
2026-05-09 06:58 33.58996 130.45021 32 ft 14 kts 150°
2026-05-09 06:58 33.58918 130.45075 31 ft 13 kts 150°
2026-05-09 06:58 33.58840 130.45127 33 ft 13 kts 149°
2026-05-09 06:59 33.58762 130.45181 34 ft 13 kts 150°
2026-05-09 06:59 33.58684 130.45234 34 ft 13 kts 150°
2026-05-09 06:59 33.58606 130.45287 35 ft 13 kts 150°
2026-05-09 06:59 33.58528 130.45340 35 ft 13 kts 150°
2026-05-09 07:00 33.58451 130.45394 36 ft 13 kts 150°
2026-05-09 07:00 33.58373 130.45447 37 ft 13 kts 150°
2026-05-09 07:00 33.58295 130.45500 37 ft 13 kts 150°
2026-05-09 07:00 33.58214 130.45555 38 ft 16 kts 150°
2026-05-09 07:01 33.58119 130.45620 39 ft 16 kts 150°
2026-05-09 07:01 33.58025 130.45684 38 ft 16 kts 150°
2026-05-09 07:01 33.57920 130.45756 41 ft 18 kts 150°
2026-05-09 07:01 33.57804 130.45837 41 ft 22 kts 149°
2026-05-09 07:02 33.57671 130.45929 43 ft 20 kts 150°
2026-05-09 07:02 33.57583 130.45946 43 ft 12 kts 206°
2026-05-09 07:02 33.57534 130.45874 42 ft 11 kts 243°
2026-05-09 07:02 33.57542 130.45786 45 ft 11 kts 312°
2026-05-09 07:03 33.57610 130.45738 43 ft 11 kts 331°
2026-05-09 07:03 33.57679 130.45691 43 ft 12 kts 330°
2026-05-09 07:03 33.57839 130.45582 43 ft 49 kts 330°
2026-05-09 07:03 33.58372 130.45217 38 ft 127 kts 330°
2026-05-09 07:04 33.59252 130.44596 486 ft 154 kts 333°
2026-05-09 07:04 33.60184 130.43957 1390 ft 156 kts 331°
2026-05-09 07:04 33.61145 130.43307 2089 ft 169 kts 330°
2026-05-09 07:04 33.62255 130.42553 2311 ft 198 kts 330°
2026-05-09 07:05 33.63536 130.41681 2513 ft 224 kts 331°
2026-05-09 07:05 33.65072 130.41086 2694 ft 247 kts
2026-05-09 07:05 33.66705 130.41778 3252 ft 259 kts 39°
2026-05-09 07:05 33.67785 130.43522 3861 ft 264 kts 63°
2026-05-09 07:06 33.68627 130.45518 4436 ft 270 kts 64°
2026-05-09 07:06 33.69111 130.47704 4887 ft 277 kts 94°
2026-05-09 07:06 33.68568 130.49891 5703 ft 277 kts 122°
2026-05-09 07:06 33.67283 130.51563 6409 ft 280 kts 147°
2026-05-09 07:07 33.65610 130.52737 6984 ft 283 kts 153°
2026-05-09 07:07 33.63869 130.53882 7622 ft 287 kts 154°
2026-05-09 07:07 33.62028 130.54878 8274 ft 293 kts 159°
2026-05-09 07:07 33.60130 130.55799 9034 ft 296 kts 159°
2026-05-09 07:08 33.58202 130.56727 9748 ft 302 kts 159°
2026-05-09 07:08 33.56231 130.57687 10332 ft 312 kts 159°
2026-05-09 07:08 33.54139 130.58718 10527 ft 337 kts 159°
2026-05-09 07:08 33.51928 130.59819 11075 ft 351 kts 159°
2026-05-09 07:09 33.49649 130.60962 11822 ft 360 kts 159°
2026-05-09 07:09 33.47320 130.62134 12725 ft 365 kts 159°
2026-05-09 07:09 33.44961 130.63340 13635 ft 368 kts 156°
2026-05-09 07:09 33.42864 130.65145 14172 ft 380 kts 131°
2026-05-09 07:10 33.41236 130.67646 14739 ft 386 kts 127°
2026-05-09 07:10 33.39575 130.70183 15508 ft 392 kts 129°
2026-05-09 07:10 33.37845 130.72735 16392 ft 396 kts 130°
2026-05-09 07:10 33.36085 130.75299 17208 ft 401 kts 130°
2026-05-09 07:11 33.34295 130.77899 17968 ft 408 kts 130°
2026-05-09 07:11 33.32602 130.80567 18576 ft 412 kts 120°
2026-05-09 07:11 33.31644 130.83821 19080 ft 420 kts 96°
2026-05-09 07:11 33.31628 130.87317 19710 ft 422 kts 77°
2026-05-09 07:12 33.32366 130.90683 20298 ft 421 kts 69°
2026-05-09 07:12 33.33274 130.94078 20787 ft 432 kts 69°
2026-05-09 07:12 33.34173 130.97542 21358 ft 441 kts 69°
2026-05-09 07:12 33.35054 131.01087 22008 ft 447 kts 70°
2026-05-09 07:13 33.35927 131.04687 22635 ft 454 kts 70°
2026-05-09 07:13 33.36808 131.08338 23221 ft 461 kts 71°
2026-05-09 07:13 33.37705 131.12060 23783 ft 469 kts 71°
2026-05-09 07:13 33.38820 131.15715 24205 ft 469 kts 57°
2026-05-09 07:14 33.40703 131.18833 24671 ft 459 kts 42°
2026-05-09 07:14 33.42870 131.21685 25105 ft 468 kts 42°
2026-05-09 07:14 33.45045 131.24622 25691 ft 473 kts 43°
2026-05-09 07:14 33.47204 131.27610 26312 ft 476 kts 44°
2026-05-09 07:15 33.49366 131.30647 26858 ft 483 kts 44°
2026-05-09 07:15 33.51548 131.33754 27301 ft 490 kts 44°
2026-05-09 07:15 33.53733 131.36860 27798 ft 496 kts 44°
2026-05-09 07:15 33.55996 131.40073 28291 ft 501 kts 44°
2026-05-09 07:16 33.58226 131.43241 28796 ft 506 kts 45°
2026-05-09 07:16 33.60504 131.46484 29317 ft 511 kts 45°
2026-05-09 07:16 33.62830 131.49799 29737 ft 517 kts 45°
2026-05-09 07:16 33.65128 131.53077 30166 ft 522 kts 45°
2026-05-09 07:17 33.67474 131.56430 30573 ft 525 kts 45°
2026-05-09 07:17 33.69829 131.59794 31017 ft 528 kts 45°
2026-05-09 07:17 33.72194 131.63173 31445 ft 530 kts 45°
2026-05-09 07:17 33.74574 131.66579 31841 ft 534 kts 45°
2026-05-09 07:18 33.76973 131.70016 32192 ft 538 kts 45°
2026-05-09 07:18 33.79382 131.73475 32580 ft 540 kts 45°
2026-05-09 07:18 33.81794 131.76944 32999 ft 542 kts 45°
2026-05-09 07:18 33.84216 131.80431 33390 ft 544 kts 46°
2026-05-09 07:19 33.86646 131.83932 33763 ft 548 kts 45°
2026-05-09 07:19 33.89096 131.87463 34014 ft 552 kts 45°
2026-05-09 07:19 33.91563 131.91023 34324 ft 554 kts 45°
2026-05-09 07:19 33.94038 131.94600 34656 ft 555 kts 45°
2026-05-09 07:20 33.96508 131.98175 34988 ft 556 kts 45°
2026-05-09 07:20 33.98990 132.01768 35276 ft 558 kts 46°
2026-05-09 07:20 34.01481 132.05379 35553 ft 561 kts 46°
2026-05-09 07:20 34.03976 132.08995 35789 ft 563 kts 46°
2026-05-09 07:21 34.06484 132.12620 36079 ft 563 kts 44°
2026-05-09 07:21 34.09134 132.16089 36420 ft 558 kts 39°
2026-05-09 07:21 34.11981 132.19207 36863 ft 551 kts 34°
2026-05-09 07:21 34.14901 132.22221 37071 ft 552 kts 34°
2026-05-09 07:22 34.17792 132.25184 37252 ft 555 kts 34°
2026-05-09 07:22 34.20726 132.28218 37551 ft 555 kts 34°
2026-05-09 07:22 34.23650 132.31284 37964 ft 554 kts 34°
2026-05-09 07:22 34.26531 132.34336 38433 ft 550 kts 34°
2026-05-09 07:23 34.29401 132.37384 38806 ft 548 kts 34°
2026-05-09 07:23 34.32270 132.40426 38986 ft 549 kts 34°
2026-05-09 07:23 34.38060 132.46549 39085 ft 555 kts 34°
2026-05-09 07:24 34.43862 132.52698 39090 ft 552 kts 34°
2026-05-09 07:24 34.49623 132.58820 39099 ft 549 kts 34°
2026-05-09 07:25 34.55356 132.64928 39106 ft 549 kts 34°
2026-05-09 07:25 34.61118 132.71062 39092 ft 551 kts 34°
2026-05-09 07:26 34.66882 132.77218 39106 ft 552 kts 34°
2026-05-09 07:26 34.72632 132.83377 39097 ft 552 kts 34°
2026-05-09 07:27 34.78382 132.89547 39105 ft 551 kts 34°
2026-05-09 07:27 34.84138 132.95733 39100 ft 550 kts 34°
2026-05-09 07:28 34.89862 133.01895 39131 ft 549 kts 34°
2026-05-09 07:28 34.95556 133.08036 39103 ft 550 kts 34°
2026-05-09 07:29 35.01260 133.14204 39152 ft 550 kts 34°
2026-05-09 07:29 35.06972 133.20393 39119 ft 550 kts 35°
2026-05-09 07:30 35.12692 133.26605 39108 ft 550 kts 34°
2026-05-09 07:30 35.18412 133.32827 39117 ft 550 kts 35°
2026-05-09 07:31 35.24127 133.39057 39116 ft 550 kts 35°
2026-05-09 07:31 35.29841 133.45297 39115 ft 551 kts 35°
2026-05-09 07:32 35.35555 133.51550 39121 ft 551 kts 35°
2026-05-09 07:32 35.41229 133.57769 39142 ft 551 kts 35°
2026-05-09 07:33 35.49771 133.67164 39118 ft 548 kts 35°
2026-05-09 07:34 35.55432 133.73402 39140 ft 547 kts 35°
2026-05-09 07:34 35.61088 133.79644 39134 ft 546 kts 35°
2026-05-09 07:35 35.66748 133.85905 39123 ft 547 kts 35°
2026-05-09 07:35 35.72388 133.92156 39144 ft 547 kts 35°
2026-05-09 07:36 35.78043 133.98436 39142 ft 548 kts 35°
2026-05-09 07:36 35.83712 134.04745 39132 ft 549 kts 35°
2026-05-09 07:37 35.89381 134.11068 39127 ft 550 kts 35°
2026-05-09 07:37 35.95045 134.17398 39125 ft 550 kts 35°
2026-05-09 07:38 36.00717 134.23750 39159 ft 550 kts 35°
2026-05-09 07:38 36.06399 134.30125 39126 ft 550 kts 35°
2026-05-09 07:39 36.12053 134.36483 39144 ft 550 kts 36°
2026-05-09 07:39 36.17710 134.42857 39131 ft 549 kts 36°
2026-05-09 07:40 36.23175 134.49412 39125 ft 555 kts 43°
2026-05-09 07:40 36.27836 134.57100 39116 ft 564 kts 54°
2026-05-09 07:41 36.31874 134.65414 39117 ft 565 kts 56°
2026-05-09 07:41 36.35899 134.73800 39129 ft 566 kts 55°
2026-05-09 07:42 36.39308 134.80810 39118 ft 567 kts 55°
2026-05-09 07:42 36.43374 134.89110 39164 ft 570 kts 55°
2026-05-09 07:42 36.45442 134.93327 39289 ft 572 kts 55°
2026-05-09 07:43 36.47507 134.97549 39514 ft 571 kts 55°
2026-05-09 07:43 36.49563 135.01765 39780 ft 570 kts 55°
2026-05-09 07:43 36.51617 135.05985 40025 ft 569 kts 55°
2026-05-09 07:43 36.53657 135.10179 40262 ft 568 kts 55°
2026-05-09 07:44 36.55707 135.14402 40435 ft 569 kts 55°
2026-05-09 07:44 36.57747 135.18608 40642 ft 568 kts 55°
2026-05-09 07:44 36.59760 135.22765 40843 ft 568 kts 55°
2026-05-09 07:44 36.61798 135.26977 41010 ft 567 kts 55°
2026-05-09 07:45 36.63841 135.31204 41064 ft 569 kts 55°
2026-05-09 07:45 36.67912 135.39644 41099 ft 569 kts 56°
2026-05-09 07:46 36.71983 135.48107 41124 ft 569 kts 56°
2026-05-09 07:46 36.76051 135.56584 41112 ft 569 kts 56°
2026-05-09 07:47 36.80074 135.64990 41107 ft 569 kts 56°
2026-05-09 07:47 36.84130 135.73484 41111 ft 569 kts 56°
2026-05-09 07:48 36.88185 135.82000 41103 ft 569 kts 56°
2026-05-09 07:48 36.92229 135.90513 41100 ft 569 kts 56°
2026-05-09 07:49 36.96238 135.98978 41104 ft 569 kts 56°
2026-05-09 07:49 37.00248 136.07460 41104 ft 568 kts 56°
2026-05-09 07:50 37.04267 136.15985 41107 ft 569 kts 56°
2026-05-09 07:50 37.08282 136.24527 41100 ft 569 kts 56°
2026-05-09 07:51 37.12289 136.33074 41097 ft 569 kts 56°
2026-05-09 07:51 37.16297 136.41645 41095 ft 569 kts 56°
2026-05-09 07:52 37.20263 136.50150 41097 ft 569 kts 56°
2026-05-09 07:52 37.24269 136.58760 41095 ft 570 kts 56°
2026-05-09 07:53 37.28255 136.67352 41089 ft 569 kts 56°
2026-05-09 07:53 37.32232 136.75946 41101 ft 569 kts 56°
2026-05-09 07:54 37.36212 136.84569 41091 ft 570 kts 57°
2026-05-09 07:54 37.40182 136.93193 41088 ft 569 kts 57°
2026-05-09 07:55 37.44141 137.01816 41081 ft 569 kts 57°
2026-05-09 07:55 37.48068 137.10393 41078 ft 569 kts 57°
2026-05-09 07:56 37.52016 137.19037 41087 ft 569 kts 57°
2026-05-09 07:56 37.55959 137.27694 41071 ft 569 kts 57°
2026-05-09 07:57 37.59896 137.36361 41085 ft 569 kts 57°
2026-05-09 07:57 37.63821 137.45024 41066 ft 569 kts 57°
2026-05-09 07:58 37.67739 137.53696 41071 ft 568 kts 57°
2026-05-09 07:58 37.71652 137.62378 41067 ft 568 kts 57°
2026-05-09 07:59 37.75533 137.71014 41058 ft 568 kts 57°
2026-05-09 07:59 37.79429 137.79706 41061 ft 568 kts 57°
2026-05-09 08:00 37.83322 137.88415 41056 ft 568 kts 57°
2026-05-09 08:00 37.87195 137.97105 41060 ft 567 kts 57°
2026-05-09 08:01 37.91073 138.05826 41060 ft 567 kts 57°
2026-05-09 08:01 37.94936 138.14538 41053 ft 567 kts 57°
2026-05-09 08:02 37.98795 138.23268 41064 ft 567 kts 58°
2026-05-09 08:02 38.02645 138.31998 41050 ft 567 kts 57°
2026-05-09 08:03 38.07167 138.40005 41037 ft 556 kts 41°
2026-05-09 08:03 38.12893 138.46414 41043 ft 541 kts 26°
2026-05-09 08:04 38.19243 138.51552 41081 ft 537 kts 24°
2026-05-09 08:04 38.25534 138.56568 41056 ft 537 kts 25°
2026-05-09 08:05 38.31825 138.61682 41021 ft 537 kts 25°
2026-05-09 08:05 38.38102 138.66852 41020 ft 536 kts 25°
2026-05-09 08:06 38.44351 138.72021 41022 ft 536 kts 25°
2026-05-09 08:06 38.50611 138.77205 41022 ft 535 kts 26°
2026-05-09 08:07 38.56865 138.82394 41029 ft 535 kts 26°
2026-05-09 08:07 38.63095 138.87572 41013 ft 534 kts 26°
2026-05-09 08:08 38.69329 138.92765 41005 ft 533 kts 26°
2026-05-09 08:08 38.75532 138.97942 41029 ft 533 kts 26°
2026-05-09 08:09 38.81714 139.03112 41006 ft 533 kts 26°
2026-05-09 08:09 38.87918 139.08313 41004 ft 532 kts 27°
2026-05-09 08:10 38.94113 139.13518 40992 ft 532 kts 27°
2026-05-09 08:10 39.00299 139.18726 40992 ft 531 kts 27°
2026-05-09 08:11 39.06477 139.23937 40999 ft 531 kts 27°
2026-05-09 08:11 39.12651 139.29156 40990 ft 531 kts 27°
2026-05-09 08:12 39.21897 139.36994 40990 ft 530 kts 27°
2026-05-09 08:12 39.28016 139.42195 40984 ft 530 kts 27°
2026-05-09 08:13 39.34170 139.47436 40981 ft 529 kts 27°
2026-05-09 08:13 39.40320 139.52686 40981 ft 529 kts 27°
2026-05-09 08:14 39.46468 139.57944 40975 ft 529 kts 27°
2026-05-09 08:14 39.52606 139.63206 40971 ft 529 kts 27°
2026-05-09 08:15 39.58707 139.68448 40968 ft 529 kts 27°
2026-05-09 08:15 39.64850 139.73737 40981 ft 529 kts 27°
2026-05-09 08:16 39.70991 139.79036 40985 ft 530 kts 27°
2026-05-09 08:16 39.77131 139.84346 40969 ft 530 kts 27°
2026-05-09 08:17 39.83268 139.89669 40967 ft 530 kts 28°
2026-05-09 08:17 39.89375 139.95029 40961 ft 530 kts 28°
2026-05-09 08:18 39.95481 140.00413 40961 ft 529 kts 28°
2026-05-09 08:18 40.01576 140.05794 40991 ft 530 kts 28°
2026-05-09 08:19 40.07686 140.11194 40962 ft 530 kts 28°
2026-05-09 08:19 40.13747 140.16562 40944 ft 529 kts 28°
2026-05-09 08:20 40.19846 140.21977 40942 ft 529 kts 28°
2026-05-09 08:20 40.25928 140.27388 40940 ft 529 kts 28°
2026-05-09 08:21 40.31998 140.32801 40948 ft 529 kts 28°
2026-05-09 08:21 40.38082 140.38238 40946 ft 528 kts 29°
2026-05-09 08:22 40.44151 140.43678 40920 ft 528 kts 29°
2026-05-09 08:22 40.50194 140.49107 40768 ft 522 kts 29°
2026-05-09 08:23 40.53164 140.51788 40318 ft 517 kts 28°
2026-05-09 08:23 40.56145 140.54463 39626 ft 520 kts 28°
2026-05-09 08:23 40.59142 140.57152 39005 ft 522 kts 28°
2026-05-09 08:23 40.62132 140.59847 38546 ft 519 kts 29°
2026-05-09 08:24 40.65098 140.62530 38056 ft 515 kts 28°
2026-05-09 08:24 40.68039 140.65190 37701 ft 509 kts 29°
2026-05-09 08:24 40.70937 140.67807 37445 ft 500 kts 27°
2026-05-09 08:24 40.73811 140.70104 37024 ft 480 kts 22°
2026-05-09 08:25 40.76748 140.72022 36112 ft 463 kts 15°
2026-05-09 08:25 40.79727 140.73500 35091 ft 453 kts 12°
2026-05-09 08:25 40.82673 140.74878 34046 ft 448 kts 12°
2026-05-09 08:25 40.85597 140.76273 32887 ft 443 kts 13°
2026-05-09 08:26 40.88454 140.77676 31925 ft 433 kts 14°